Погода в Андрониках

Россия / Ярославская область     57°51′31″N   39°59′07″E
темп.,
°C
ветер,
м/с
пор.,
м/с
влажн.,
%
обл.,
%
осадки,
мм/ч
давл.,
гПа
погр.,
м
19 апреля, пн
пн1900:00+5всв51180100 0.0 1027600
03:00+4всв51083100 0.0 1028500
06:00+3всв61174100 0.0 1028491
09:00+4в7105964 0.0 1029772
12:00+8в79435 0.0 10291408
15:00+9в784147 0.0 10281859
18:00+8в684644 0.0 10281719
21:00+4в612560 0.0 1029491
20 апреля, вт
вт2000:00+2в6136363 0.0 1029469
03:000в512675 0.0 1029405
06:000в6136772 0.0 1028444
09:00+4вюв7115193 0.0 1028763
12:00+8вюв81145100 0.0 10261387
15:00+9вюв71149100 0.0 10241582
18:00+9вюв8135099 0.0 10211392
21:00+7в81549100 0.0 1020870
21 апреля, ср
ср2100:00+5в81651100 0.0 1017740
03:00+2в91775100 0.4 1013846
06:00+1в91997100 3.3 1009879
09:00+1вюв91897100 7.1 1006867
12:00+3вюв91894100 1.5 1003849
15:00+5вюв91694100 2.2 10011080
18:00+4ю71198100 1.5 1003866
21:00+3юз71290100 1.6 10071007
22 апреля, чт
чт2200:00+3ююз61288100 0.1 1010684
03:00+4ю51191100 0.1 1011434
06:00+4ю61193100 0.3 1012845
09:00+5ююз6984100 0.3 10131049
12:00+8ююз6970100 0.1 10141267
15:00+9юз6870100 0.1 10151124
18:00+9ююз487197 0.0 1016557
21:00+6ююв338264 0.0 101743
23 апреля, пт
пт2300:00+6ююв389494 0.0 1017159
03:00+5ююв359548 0.1 101792
06:00+5ююв389534 0.0 1016182
09:00+11ю6107396 0.0 1016524
12:00+15ю8115811 0.1 10161558
15:00+16ю7104856 0.4 10142190
18:00+14ююв7126057 0.3 1013744
21:00+11ююв7157616 0.3 1013462